sat.trackr.live / text

‹ back to catalog

STARLINK-31195

NORAD 58796 · 2024-012K

PAYLOAD ACTIVE UNKNOWN

§ Identity

Operator
Country
US
Launch date
2024-01-15
Launch site
AFETR
Launch vehicle
Mass (kg)
RCS (m²)

Purposes: comms

External: N2YO · Heavens-Above · Gunter

§ Orbital elements

Epoch: 2026-09-20T00:51:09.207936Z

Period
94.27 min
Inclination
42.9999°
Eccentricity
0.0001137
Mean motion
15.27577673 rev/d
Perigee alt
482.3 km
Apogee alt
483.8 km
Semi-major
6,861.2 km
B*
1.0985e-5
RAAN
148.1136°
Arg perigee
280.1847°
Mean anomaly
79.8877°
Rev number
15,095

§ Raw data

STARLINK-311951 58796U 24012K   26263.03552324  .00000040  00000+0  10985-4 0  99972 58796  42.9999 148.1136 0001137 280.1847  79.8877 15.27577673150951

JSON: /api/v1/satellites/58796 · /tle

For live sub-satellite position, see the globe view (requires WebGL).

§ Visibility from observer

Set your observer location to see the next 7 days of passes ≥ 10°. The values pass through the URL so the page stays shareable.

No JS? Fill the form by hand. The geolocation button needs JavaScript.